Location: ??
(35.4824°N, 139.4679°E)
Time: 21:36:38
(UTC+00:00)

BREEZE-M DEB (TANK) - Pass Details

Date: 29 October 2020
Orbit: 305 x 13930 km, 46.1° (Epoch: 23 November)

Event Time Altitude Azimuth Distance (km) Brightness Sun altitude
Exits shadow 20:25:46 11° 271° (W) 1,241 3.5 -8.0°
Maximum altitude 20:27:25 18° 223° (SW) 835 3.0 -7.6°
Drops below altitude 10° 20:28:59 11° 174° (S) 1,171 4.2 -7.3°
Sets 20:31:29 0° 151° (SSE) 2,314 6.2 -6.8°
